www.pogodaiklimat.ru

Погода и климат >> Архив погоды >> Россия >> Крым >> Карадаг


ПОГОДА в Карадаге

  • Прогноз погоды в Карадаге
  • Монитор погоды в Карадаге

АРХИВ ПОГОДЫ в Карадаге

Время (UTC), дата Ветер
(напр.,м/с)
 
Видим.   Явления Облачность Т
(С)
Тd
(С)
f
(%)
Тe
(С)
Тes
(С)
Комфортность P
(гПа)
Po
(гПа)
Тmin
(С)
Tmax
(С)
R
(мм)
R24
(мм)
S
(см)
12 11.06 СЗ 3
{10}
20 км слаб. ливневой дождь {гроза} 9/9 600 м
[Cb cap]
+25.1 +16.5 59 +29 +30 душно 1011.0 1006.2
15 11.06 С 4
{11}
20 км {ливн. осадки} 9/0
[Ac cast Ci fib]
+27.5 +18.5 58 +32 +34 очень
душно
1009.5 1004.8 0.4
18 11.06 С 5
{10}
20 км {ливн. осадки} 9/5 600 м
[Sc diur, vesp Ac cuf Ci fib]
+26.5 +15.9 52 +30 +30 душно 1009.8 1005.1 +31.0 0.4
21 11.06 СЗ 4 20 км 9/3 600 м
[Sc Ac cast Ci fib]
+26.1 +16.6 56 +30 +30 душно 1008.6 1003.9
00 12.06 С 4
{11}
20 км 9/0
[Ac cast Ci fib]
+25.9 +17.1 58 +30 +30 душно 1007.2 1002.5
03 12.06 СВ 4
{11}
50 км 9/8 600 м
[Cu med, cong Ci fib]
+26.8 +17.2 56 +31 +31 душно 1007.3 1002.6 +24.9
06 12.06 СВ 5 50 км 8/0
[Ac cast Ci fib]
+28.8 +18.4 53 +34 +37 очень
душно
1007.4 1002.7 +24.9
12 12.06 СВ 3 20 км 3/0
[Ci fib]
+31.0 +20.2 53 +38 +49 очень
душно
1007.6 1003.0
15 12.06 С 5 20 км 1/0
[Ci fib]
+28.5 +18.4 54 +33 +35 очень
душно
1007.9 1003.2
18 12.06 СЗ 3 20 км ясно +24.9 +16.8 61 +29 +29 душно 1008.1 1003.4 +32.6
21 12.06 С 3 20 км ясно +24.6 +18.5 69 +29 +29 душно 1008.9 1004.1
00 13.06 СЗ 3 20 км ясно +24.9 +18.8 69 +30 +30 душно 1008.4 1003.7
03 13.06 СЗ 2 50 км 3/0
[Ci fib]
+23.7 +20.0 80 +29 +30 душно 1008.7 1003.9 +22.7
06 13.06 СВ 3 50 км 9/3 600 м
[Sc Ci fib]
+28.0 +20.8 65 +35 +40 очень
душно
1009.9 1005.2 +22.7
09 13.06 ЮВ 3 50 км 4/3 600 м
[Sc Ci fib]
+28.2 +21.5 67 +36 +47 очень
душно
1010.6 1005.9
12 13.06 В 3 20 км гроза, ливневой дождь 9/8 600 м
[Cb cap Ac cast]
+26.2 +22.4 80 +34 +36 очень
душно
1011.3 1006.6
15 13.06 С 4 20 км {гроза, ливн. осадки} 9/3 600 м
[Sc Ac cast Ci fib]
+26.8 +19.8 66 +33 +34 очень
душно
1011.7 1007.0 0.0
18 13.06 С 3 20 км {гроза, ливн. осадки} 3/0
[Ci fib]
+25.5 +16.3 57 +29 +29 душно 1011.4 1006.6 +30.2 0.0
21 13.06 С 5 20 км 9/0
[Ac cast Ci fib]
+25.6 +17.1 59 +29 +29 душно 1011.3 1006.6
00 14.06 С 6
{11}
20 км {ливн. осадки} 4/3 600 м
[Sc Ac cast]
+25.1 +18.9 68 +30 +30 душно 1011.5 1006.7
03 14.06 С 3 50 км 9/3 600 м
[Sc Ac cast]
+23.2 +18.3 74 +29 +29 душно 1011.9 1007.1 +22.9 0.0
06 14.06 В 5
{10}
50 км 9/0
[Ac cast Ci fib]
+27.2 +18.1 58 +32 +34 очень
душно
1012.5 1007.8 +22.6 0.0
09 14.06 В 6
{10}
20 км 9/3 600 м
[Cu med, cong Ac lent Ci fib]
+27.3 +20.1 65 +34 +37 очень
душно
1013.6 1008.9
12 14.06 В 6 20 км 4/3 600 м
[Cu med, cong Ci fib]
+27.0 +19.1 62 +32 +36 очень
душно
1013.7 1009.0
15 14.06 В 4
{11}
20 км 1/1 600 м
[Cu hum]
+27.7 +18.0 56 +32 +34 очень
душно
1012.9 1008.2
18 14.06 С 5
{10}
20 км 3/3 300 м
[Cu med, cong Ci fib]
+24.7 +18.6 69 +29 +29 душно 1014.1 1009.3 +28.3
21 14.06 С 6-10
{10}
20 км 4/0
[Ci]
+25.4 +16.3 57 +29 +29 душно 1013.6 1008.8
00 15.06 С 7-13
{13}
20 км 8/0
[Ci]
+24.3 +16.2 61 +28 +28 душно 1012.6 1007.8
03 15.06 С 8-12
{14}
50 км 9/3 600 м
[Cu med, cong Ac cast Ci fib]
+24.2 +14.9 56 +27 +27 жарко 1011.9 1007.1 +23.4
06 15.06 С 6-12
{14}
50 км 9/0
[Ac cast Ci fib]
+27.3 +16.8 53 +31 +34 душно 1011.9 1007.2 +23.4
09 15.06 СВ 7-11
{12}
50 км 9/0
[Ac cast Ci fib]
+30.4 +18.7 50 +36 +38 очень
душно
1011.8 1007.1
12 15.06 С 6-11
{11}
50 км 9/0
[Ac cast Ci fib]
+30.8 +18.5 48 +36 +39 очень
душно
1010.9 1006.2
15 15.06 СВ 6-10
{12}
50 км 9/0
[Ci fib]
+30.0 +15.9 43 +33 +34 душно 1010.2 1005.5
18 15.06 С 5
{10}
50 км 3/0
[Ac cast]
+26.6 +16.3 53 +30 +30 душно 1010.5 1005.8 +32.4
21 15.06 С 5
{10}
50 км ясно +26.4 +11.5 39 +28 +28 жарко 1010.4 1005.7
00 16.06 С 5 50 км ясно +26.3 +12.3 42 +28 +28 жарко 1010.1 1005.4
03 16.06 С 5 50 км 8/0
[Ci fib]
+26.2 +13.3 45 +28 +28 жарко 1009.4 1004.7 +24.5
06 16.06 СВ 4 50 км 3/0
[Ci fib]
+27.6 +15.6 48 +31 +37 душно 1010.1 1005.4 +24.5
09 16.06 С 6-11
{11}
50 км 3/0
[Ci fib]
+32.0 +13.7 33 +33 +40 жарко 1009.9 1005.2
12 16.06 С 5
{11}
50 км ясно +33.3 +12.4 28 +34 +41 очень
жарко
1009.5 1004.9
15 16.06 С 5
{11}
20 км ясно +32.1 +11.8 29 +32 +34 жарко 1008.8 1004.2
18 16.06 СЗ 3 20 км ясно +25.8 +8.4 33 +26 +26 жарко 1009.2 1004.4 +34.0
21 16.06 С 3 20 км ясно +27.6 +8.7 30 +27 +27 жарко 1009.3 1004.6
00 17.06 С 4 20 км ясно +26.8 +12.4 41 +28 +28 жарко 1008.7 1004.0
03 17.06 С 5-11
{14}
50 км ясно +25.7 +16.1 55 +29 +29 душно 1009.2 1004.5 +23.8
06 17.06 С 6-11
{11}
50 км ясно +26.8 +18.7 61 +32 +36 очень
душно
1010.4 1005.7 +23.8
09 17.06 С 8-13
{11}
50 км 1/1 600 м
[Cu med, cong]
+28.6 +18.0 53 +33 +36 очень
душно
1010.8 1006.1
12 17.06 С 7-12
{13}
20 км ясно +28.4 +17.7 52 +33 +37 очень
душно
1010.9 1006.2
15 17.06 С 6-10
{12}
20 км ясно +27.6 +17.1 53 +32 +33 очень
душно
1010.9 1006.2
18 17.06 С 4
{10}
20 км ясно +25.5 +15.1 53 +28 +28 жарко 1011.4 1006.6 +30.0
21 17.06 С 5 20 км ясно +25.1 +15.2 54 +28 +28 жарко 1012.0 1007.2
03 18.06 С 5
{10}
50 км 3/1 300 м
[Cu med, cong Ci]
+24.4 +16.6 62 +28 +28 душно 1012.1 1007.3 +23.5
06 18.06 С 5
{10}
50 км ясно +28.1 +14.4 43 +30 +35 жарко 1012.4 1007.7 +23.5

 

Местоположение метеостанции Карадаг (Крым, Россия): широта 44.90 долгота 35.20 высота над уровнем моря 42 м.

В архиве по умолчанию представлена погода в Карадаге за последнюю неделю. Архивные данные за месяц целиком и за предыдущие месяцы, начиная с января 2011 года, Вы можете получить, выбрав интересующий диапазон дат из раскрывающегося списка и нажав кнопку "Ввод!".


*Определитесь, кто Вы:
робот инопланетянин человек

Внимание! Время в таблицах - всемирное. Для получения местного времени необходимо прибавить поправку, которая равна 3 ч.

Смотрите также архив погоды в соседних городах и на ближайших метеорологических станциях:

Погода в Феодосии (Крым, Россия) (20 км)
Погода в Владиславовке (Крым, Россия) (33 км)
Погода в Белогорске (Крым, Россия) (50 км)
Погода в Алуште (Крым, Россия) (68 км)
Погода на Ангарском Перевале (Крым, Россия) (69 км)
Погода в Нижнегорском (Крым, Россия) (71 км)
Погода в Мысовом (Крым, Россия) (78 км)
Погода в Симферополе город (Крым, Россия) (85 км)
Погода в Никитском саду (Крым, Россия) (86 км)
Погода в Стрелковом (Херсонская область, Украина) (88 км)

Пояснения к столбцам:

Ветер - указаны скорость ветра в м/с - средняя за 10 мин, порывы в срок и между сроками (в фигурных скобках) и направление, откуда дует ветер: С - северный, СВ - северо-восточный, В - восточный, ЮВ - юго-восточный, Ю - южный, ЮЗ - юго-западный, З - западный, СЗ - северо-западный.
Видимость - горизонтальная дальность видимости в метрах или километрах. При видимости от 1 до 10 км при отсутствии осадков обычно наблюдается дымка, при ухудшении видимости до 1 км и менее - туман. В сухую погоду видимость может ухудшаться дымом, пылью или мглою.
Явления - указаны атмосферные явления, наблюдавшиеся в срок или в последний час перед сроком; фигурными скобками обозначены явления, наблюдавшиеся между сроками (за 1-3 часа до срока); квадратными скобками обозначены град или гололедные отложения с указанием их диаметра в мм.
Облачность - указаны через наклонную черту общая и нижняя облачность в баллах и высота нижней границы облаков в метрах; квадратными скобками обозначены формы облаков: Ci - перистые, Cs - перисто-слоистые, Cc - перисто-кучевые, Ac - высококучевые, As - высокослоистые, Sc - слоисто-кучевые, Ns - слоисто-дождевые, Cu - кучевые, Cb - кучево-дождевые. Подробнее классификацию облаков см. в Атласе облаков (PDF).
T - Температура воздуха - температура, измеренная на высоте 2 м над землей.
Td - Температура точки росы - температура, при понижении до которой содержащийся в воздухе водяной пар достигнет насыщения.
f - Относительная влажность воздуха - влажноcть воздуха, измеренная на высоте 2 м над землей.
Te - Эффективная температура - температура, которую ощущает одетый по сезону человек в тени. Характеристика душности погоды. При расчете учитывается влияние влажности воздуха и скорости ветра на теплоощущения человека.
Tes - Эффективная температура на солнце - температура, которую ощущает человек, с поправкой на солнечный нагрев. Характеристика знойности погоды. Зависит от высоты солнца над горизонтом, облачности и скорости ветра. Ночью, в пасмурную погоду, а также при ветре 12 м/с и более поправка равна нулю.
P - Атмосферное давление - приведенное к уровню моря атмосферное давление.
Po - Атмосферное давление - измеренное на уровне метеостанции атмосферное давление.
Tmin - Минимальная температура - минимум температуры воздуха на высоте 2 м над землей.
Tmax - Максимальная температура - максимум температуры воздуха на высоте 2 м над землей.
R - Количество осадков - Количество выпавших осадков за период времени, мм. При наведении курсора мыши на число - период времени, за который выпало указанное количество осадков.
R24 - Количество осадков - Количество выпавших осадков за 24 часа, мм.
S - Снежный покров - Высота снежного покрова, см. При наведении курсора мыши на число - состояние снежного покрова и степень покрытия местности в баллах.